Location: Lone Tree Crossing
(44.4480°N, 108.7040°W)
Time: 22:12:31
(UTC+00:00)

X-37B - Pass Details

Date: 27 January 2022
Orbit: 329 x 342 km, 45.0° (Epoch: 18 May)

Event Time Altitude Azimuth Distance (km) Brightness Sun altitude
Rises 02:25:18 0° 235° (SW) 2,107 5.2 -23.0°
Reaches altitude 10° 02:27:22 10° 227° (SW) 1,270 3.8 -23.4°
Enters shadow 02:28:11 17° 219° (SW) 964 3.0 -23.5°
